[[{"header":{"parameterUnit":"m.s-1","parameterCategory":1,"la1":30.2991,"la2":30.254,"lo1":-89.0895,"lo2":-89.0444,"dy":0.0017,"dx":0.0017,"nx":28,"ny":28,"refTime":"2023-09-21T03:00:00:Z","depth":0,"parameterNumber":2,"parameterNumberName":"U-component_of_WINDS"},"data":[0,0,0,0,0,0,0,0,0,0,0,0,0,0,0,0,0,0,0,0,0,0,0,0,0,0,0,0,0,0,0,0,0,0,0,0,0,0,0,0,0,0,0,0,0,0,0,0,0,0,0,0,0,0,0,0,0,0,-4.8579,-4.8579,0,-4.8586,-4.8586,-4.8587,-4.8451,-4.8448,-4.8444,-4.844,-4.845,-4.8453,-4.8457,0,0,0,0,0,0,0,0,0,0,0,0,0,-4.8451,-4.8454,-4.8579,-4.8579,-4.8579,-4.8586,-4.8586,-4.8587,-4.8452,-4.8447,-4.8443,-4.8439,-4.8448,-4.8453,-4.8457,0,0,0,0,0,0,0,0,0,0,0,0,0,-4.8487,-4.8455,-4.8579,-4.8513,-4.8507,-4.8586,-4.8586,-4.8587,-4.8453,-4.8447,-4.8442,-4.8437,-4.8447,-4.8452,-4.8458,-4.8601,0,0,-4.8474,-4.8477,0,0,0,0,0,0,0,0,-4.8485,-4.8492,-4.8522,-4.8517,-4.8511,-4.8512,-4.8544,-4.8592,-4.8454,-4.8473,-4.844,-4.8434,-4.8475,-4.8478,-4.8491,-4.8602,-4.8602,-4.8475,-4.8478,-4.8481,-4.8482,0,0,0,0,0,0,0,-4.8483,-4.8491,-4.8582,-4.8523,-4.8516,-4.8484,-4.8483,-4.8553,-4.8505,-4.8471,-4.8461,-4.8464,-4.8471,-4.8486,-4.849,-4.8602,-4.8475,-4.848,-4.8483,-4.8485,-4.8833,-4.8839,0,0,0,0,0,0,-4.8489,-4.849,-4.8582,-4.8582,-4.8484,-4.849,-4.8489,-4.8517,-4.8504,-4.8496,-4.8469,-4.8458,-4.848,-4.8484,-4.849,-4.8658,-4.8481,-4.8486,-4.8489,-4.8827,-4.8834,-4.8841,0,0,0,0,0,0,-4.8487,-4.8499,-4.8581,-4.8533,-4.8541,-4.8498,-4.8531,-4.852,-4.8536,-4.8502,-4.8493,-4.8493,-4.8476,-4.8483,-4.8575,-4.8657,-4.8488,-4.8493,-4.882,-4.8829,-4.8837,-4.8995,0,0,0,0,0,0,-4.8484,-4.8499,-4.8552,-4.8536,-4.8544,-4.8666,-4.8536,-4.8525,-4.8545,-4.8531,-4.8522,-4.8516,-4.8472,-4.8568,-4.8581,-4.8661,-4.8497,-4.8812,-4.8824,-4.8835,-4.8983,-4.9009,-4.9031,0,0,0,0,0,-4.848,-4.8596,-4.8555,-4.8567,-4.861,-4.867,-4.8675,-4.8622,-4.8552,-4.8606,-4.8585,-4.8516,-4.8646,-4.8578,-4.8592,-4.8675,-4.8807,-4.8821,-4.8834,-4.8972,-4.9004,-4.903,0,0,0,0,0,0,-4.8623,-4.8592,-4.8547,-4.8661,-4.867,-4.8647,-4.8713,-4.8657,-4.8685,-4.8671,-4.8604,-4.8603,-4.8707,-4.87,-4.8625,-4.8815,-4.8714,-4.8731,-4.8815,-4.8845,-4.8868,-4.8868,-4.8502,0,0,0,0,0,-4.8668,-4.8719,-4.869,-4.8793,-4.88,-4.8757,-4.8781,-4.8739,-4.8745,-4.8748,-4.8733,-4.8742,-4.8785,-4.8814,-4.8852,-4.8982,-4.8978,-4.9046,-4.907,-4.909,-4.9105,-4.9175,-4.9205,-4.8885,-4.8884,-4.8884,0,0,-4.8761,-4.8751,-4.8787,-4.8822,-4.8823,-4.8879,-4.876,-4.8823,-4.8864,-4.8757,-4.8844,-4.8834,-4.884,-4.8952,-4.9,-4.8949,-4.9193,-4.9107,-4.9123,-4.9127,-4.9192,-4.9222,-4.9249,-4.8894,-4.8892,-4.8891,0,0,-4.8959,-4.8956,-4.9042,-4.9047,-4.9051,-4.9022,-4.9043,-4.903,-4.9019,-4.9105,-4.9027,-4.9075,-4.915,-4.9157,-4.9171,-4.9376,-4.9314,-4.939,-4.9515,-4.9584,-4.9609,-4.9631,-4.9705,-4.9732,-4.9405,-4.9406,-4.9406,0,-4.9074,-4.9153,-4.9094,-4.9163,-4.9182,-4.9089,-4.9177,-4.9184,-4.92,-4.9216,-4.9158,-4.9252,-4.9249,-4.9362,-4.9413,-4.9427,-4.945,-4.939,-4.961,-4.9632,-4.9652,-4.9721,-4.9749,-4.9415,-4.9414,-4.9413,-4.9412,0,-4.9295,-4.9352,-4.9422,-4.944,-4.9466,-4.9545,-4.9499,-4.9533,-4.949,-4.9468,-4.9557,-4.9551,-4.9587,-4.9611,-4.9569,-4.9719,-4.9687,-4.9622,-4.9519,-4.9692,-4.9757,-4.9783,-4.9428,-4.9425,-4.9422,-4.942,0,0,-4.9581,-4.9568,-4.9594,-4.9602,-4.9601,-4.9644,-4.972,-4.9754,-4.9785,-4.9801,-4.9862,-4.9929,-4.9869,-4.9885,-4.9844,-4.9904,-5.0068,-4.9831,-4.983,-4.9876,-5.0234,-5.0284,-5.0316,-5.0028,-5.0032,-5.0036,-5.0234,0,-4.9774,-4.99,-4.9851,-4.9981,-5.0034,-4.9948,-5.0013,-5.0021,-5.0003,-5.0045,-5.0025,-5.0074,-4.999,-4.9999,-5.0055,-5.0036,-5.0139,-5.0021,-5.0085,-5.0088,-5.0086,-5.0349,-5.0401,-5.0588,-5.0259,-5.0263,-5.0266,0,-5.0014,-5.004,-5.0177,-5.0168,-5.0188,-5.0248,-5.0277,-5.0318,-5.0326,-5.0308,-5.0328,-5.0274,-5.0348,-5.0248,-5.035,-5.0271,-5.0295,-5.029,-5.0296,-5.0299,-5.0187,-5.036,-5.0646,-5.0674,-5.0305,-5.0302,-5.0299,0,-5.021,-5.0279,-5.0369,-5.0379,-5.0371,-5.0416,-5.0415,-5.0416,-5.0441,-5.0467,-5.0483,-5.0517,-5.0536,-5.0565,-5.0523,-5.0453,-5.0632,-5.0527,-5.062,-5.0622,-5.0661,-5.0659,-5.0955,-5.0677,-5.0677,-5.0676,-5.0675,0,-5.043,-5.0517,-5.0457,-5.0513,-5.0609,-5.0552,-5.0649,-5.0638,-5.0641,-5.0695,-5.0623,-5.0675,-5.0616,-5.0663,-5.063,-5.0721,-5.073,-5.0718,-5.0709,-5.0725,-5.0726,-5.0739,-5.0724,-5.0683,-5.0682,-5.068,-5.0679,0,-5.0663,-5.0627,-5.072,-5.0706,-5.0705,-5.0776,-5.0764,-5.0816,-5.0794,-5.0863,-5.0875,-5.0841,-5.0892,-5.0853,-5.0904,-5.0882,-5.1002,-5.0974,-5.0999,-5.0992,-5.1087,-5.1079,-5.1401,-5.1441,-5.1138,-5.1141,-5.1143,0,-5.0806,-5.087,-5.0864,-5.0895,-5.0898,-5.0948,-5.0973,-5.0921,-5.0951,-5.0966,-5.1016,-5.1062,-5.1095,-5.1182,-5.1162,-5.1201,-5.1173,-5.1284,-5.1178,-5.1193,-5.1175,-5.1172,-5.1178,-5.1305,-5.1308,-5.1311,-5.1314,0,-5.1062,-5.1042,-5.108,-5.1115,-5.1147,-5.1171,-5.1189,-5.1219,-5.1166,-5.1203,-5.1255,-5.1281,-5.1334,-5.138,-5.1413,-5.1412,-5.1355,-5.1347,-5.1371,-5.1387,-5.1399,-5.1395,-5.1057,-5.134,-5.1337,-5.1335,-5.1334,-5.1333,-5.1254,-5.1309,-5.1313,-5.136,-5.1368,-5.1388,-5.1436,-5.1421,-5.1463,-5.1501,-5.1469,-5.1531,-5.1539,-5.1577,-5.1584,-5.1633,-5.1588,-5.1622,-5.163,-5.164,-5.1653,-5.1393,-5.1639,-5.1638,-5.1637,-5.1637,-5.1636,0,-5.1507,-5.1506,-5.155,-5.1578,-5.1616,-5.1559,-5.1577,-5.1612,-5.1668,-5.168,-5.1715,-5.1776,-5.1822,-5.1806,-5.1847,-5.1889,-5.1865,-5.1902,-5.1898,-5.1899,-5.1691,-5.1667,-5.1922,-5.1922,-5.1921,-5.1921,-5.1921,-5.1921,-5.1643,-5.1732,-5.1713,-5.1807,-5.1806,-5.1866,-5.1882,-5.19,-5.191,-5.1981,-5.2018,-5.2008,-5.201,-5.2051,-5.209,-5.2085,-5.2103,-5.215,-5.2136,-5.1942,-5.1914,-5.1887,-5.1863,-5.2155,-5.2155,-5.2339,-5.2341,-5.2342]},{"header":{"parameterUnit":"m.s-1","parameterCategory":1,"la1":30.2991,"la2":30.254,"lo1":-89.0895,"lo2":-89.0444,"dy":0.0017,"dx":0.0017,"nx":28,"ny":28,"refTime":"2023-09-21T03:00:00:Z","depth":0,"parameterNumber":3,"parameterNumberName":"V-component_of_WINDS"},"data":[0,0,0,0,0,0,0,0,0,0,0,0,0,0,0,0,0,0,0,0,0,0,0,0,0,0,0,0,0,0,0,0,0,0,0,0,0,0,0,0,0,0,0,0,0,0,0,0,0,0,0,0,0,0,0,0,0,0,2.3946,2.3946,0,2.3885,2.3885,2.3884,2.3897,2.3898,2.3899,2.39,2.3827,2.3824,2.3821,0,0,0,0,0,0,0,0,0,0,0,0,0,2.4066,2.4064,2.3946,2.3946,2.3945,2.3885,2.3885,2.3884,2.3897,2.3898,2.39,2.3901,2.3828,2.3824,2.3821,0,0,0,0,0,0,0,0,0,0,0,0,0,2.401,2.4063,2.3946,2.3945,2.3944,2.3886,2.3884,2.3883,2.3897,2.3898,2.39,2.3902,2.3829,2.3825,2.382,2.3757,0,0,2.3806,2.3804,0,0,0,0,0,0,0,0,2.4013,2.4005,2.3946,2.3945,2.3944,2.3901,2.39,2.384,2.3896,2.3914,2.3901,2.3903,2.3849,2.3843,2.3827,2.3753,2.375,2.3806,2.3803,2.3801,2.38,0,0,0,0,0,0,0,2.4017,2.4008,2.3922,2.3945,2.3943,2.3944,2.3938,2.3888,2.3872,2.3913,2.3914,2.3907,2.3849,2.3832,2.3826,2.3749,2.3806,2.3802,2.3799,2.3797,2.362,2.3618,0,0,0,0,0,0,2.4023,2.4011,2.3924,2.392,2.3984,2.394,2.3934,2.3913,2.3873,2.3869,2.3905,2.3908,2.3839,2.3831,2.3823,2.3746,2.3801,2.3797,2.3794,2.3622,2.3619,2.3617,0,0,0,0,0,0,2.4026,2.4015,2.3926,2.3966,2.3955,2.3937,2.3913,2.391,2.3893,2.3868,2.3864,2.3891,2.384,2.383,2.3774,2.3743,2.3795,2.379,2.3624,2.3621,2.3618,2.3591,0,0,0,0,0,0,2.4029,2.4016,2.3993,2.3966,2.3953,2.388,2.3911,2.3908,2.3887,2.3889,2.3853,2.3849,2.384,2.3781,2.3769,2.3738,2.3787,2.3626,2.3623,2.3619,2.3594,2.3587,2.3581,0,0,0,0,0,2.4033,2.3985,2.3992,2.3981,2.3925,2.3878,2.3871,2.3865,2.3884,2.386,2.3844,2.385,2.375,2.3775,2.3762,2.3729,2.3628,2.3624,2.3619,2.3597,2.3588,2.3581,0,0,0,0,0,0,2.4005,2.3982,2.3989,2.3931,2.3908,2.3881,2.385,2.3856,2.3823,2.3826,2.3818,2.381,2.3753,2.3736,2.3764,2.3666,2.3691,2.3684,2.3678,2.367,2.3664,2.3667,2.3783,0,0,0,0,0,2.3994,2.3961,2.3941,2.3892,2.388,2.3868,2.3847,2.3846,2.3819,2.3808,2.3787,2.3758,2.372,2.3695,2.3658,2.3593,2.3584,2.3564,2.3558,2.3553,2.3545,2.3509,2.3499,2.3603,2.3603,2.3603,0,0,2.3966,2.395,2.3929,2.3886,2.3867,2.3831,2.3858,2.3819,2.3791,2.38,2.3747,2.3732,2.3699,2.3638,2.361,2.3622,2.3516,2.3547,2.3543,2.3538,2.3503,2.3493,2.3485,2.36,2.36,2.3601,0,0,2.3898,2.3884,2.3842,2.3824,2.3797,2.3789,2.378,2.3753,2.3744,2.3692,2.3698,2.3664,2.3599,2.3576,2.3555,2.3483,2.3486,2.3471,2.3435,2.34,2.3392,2.3384,2.3356,2.3347,2.3465,2.3465,2.3465,0,2.3867,2.3816,2.3818,2.3779,2.3759,2.3772,2.3727,2.3709,2.3669,2.3654,2.367,2.359,2.3568,2.3502,2.3485,2.3469,2.3455,2.3473,2.3394,2.3386,2.3379,2.3352,2.3342,2.3463,2.3463,2.3463,2.3463,0,2.3778,2.3743,2.3711,2.3678,2.3655,2.3613,2.3607,2.3583,2.3585,2.3575,2.3521,2.3497,2.3456,2.3442,2.3441,2.3375,2.3383,2.3397,2.3421,2.3368,2.3342,2.3332,2.346,2.3461,2.3461,2.3462,0,0,2.3685,2.3658,2.3646,2.3631,2.3605,2.3576,2.3535,2.3499,2.3478,2.3452,2.3415,2.3362,2.3375,2.3352,2.3349,2.3319,2.3261,2.3336,2.3335,2.332,2.3185,2.3173,2.3161,2.3266,2.3264,2.3263,2.3187,0,2.3613,2.3544,2.3546,2.348,2.3447,2.346,2.3424,2.3402,2.3393,2.3361,2.335,2.3312,2.3333,2.3319,2.329,2.3275,2.3233,2.3281,2.3228,2.3226,2.3232,2.3149,2.3135,2.3065,2.3178,2.3176,2.3175,0,2.3518,2.3494,2.3426,2.3406,2.3392,2.336,2.3328,2.3299,2.3274,2.3269,2.3246,2.3249,2.3205,2.3235,2.3172,2.3204,2.3183,2.3173,2.317,2.3161,2.3194,2.3134,2.3043,2.3031,2.316,2.3161,2.3162,0,2.3455,2.3404,2.3358,2.3345,2.3321,2.3298,2.3286,2.3265,2.3243,2.3215,2.3201,2.3167,2.3147,2.3119,2.3112,2.3135,2.3048,2.3078,2.304,2.304,2.3017,2.3018,2.2917,2.301,2.301,2.3011,2.3011,0,2.3371,2.3328,2.3329,2.3299,2.3252,2.3255,2.3206,2.3196,2.3177,2.3144,2.3154,2.3122,2.3117,2.3083,2.3077,2.3025,2.3016,2.3009,2.3007,2.3006,2.3006,2.2989,2.2992,2.3008,2.3008,2.3009,2.3009,0,2.329,2.3289,2.3238,2.3222,2.3217,2.3182,2.3167,2.3137,2.3132,2.309,2.308,2.3069,2.303,2.3022,2.2975,2.2971,2.2908,2.2913,2.2917,2.2916,2.2878,2.288,2.2759,2.2742,2.285,2.2849,2.2848,0,2.3235,2.3203,2.3185,2.3166,2.3154,2.3122,2.3102,2.3105,2.3083,2.3055,2.3028,2.2992,2.2962,2.2899,2.2884,2.2848,2.285,2.281,2.2844,2.2844,2.2845,2.2846,2.2842,2.2802,2.2801,2.28,2.2799,0,2.3136,2.3139,2.3111,2.3084,2.3062,2.3039,2.3018,2.3001,2.3001,2.2975,2.2938,2.2916,2.2871,2.2832,2.2798,2.2782,2.2789,2.279,2.2778,2.2774,2.2777,2.2773,2.2896,2.2791,2.2792,2.2792,2.2793,2.2793,2.3064,2.3036,2.302,2.299,2.2976,2.2957,2.2929,2.2922,2.2892,2.2858,2.2861,2.2819,2.2796,2.2751,2.2734,2.27,2.2712,2.2696,2.2691,2.2686,2.2682,2.2787,2.2694,2.2694,2.2694,2.2694,2.2694,0,2.2963,2.2955,2.2928,2.29,2.2876,2.2892,2.287,2.2847,2.2812,2.2793,2.2765,2.2722,2.2687,2.2672,2.2636,2.2611,2.2614,2.2602,2.2601,2.2597,2.2674,2.2686,2.26,2.26,2.26,2.26,2.2601,2.2601,2.2908,2.2862,2.2863,2.281,2.2801,2.2763,2.275,2.2731,2.2716,2.2669,2.2642,2.2634,2.2616,2.258,2.2547,2.2544,2.2528,2.2514,2.2511,2.2582,2.2592,2.2601,2.2612,2.2512,2.2512,2.2437,2.2436,2.2435]}]]